Location: *
(48.8087°S, 169.0117°W)
Time: 22:35:18
(UTC+00:00)

Daily predictions for brighter satellites

Satellite Brightness Start Highest point End
(mag) Time Altitude Azimuth Time Altitude Azimuth Time Altitude Azimuth
USA 234 4.5 14:34:54 10° ESE 14:38:59 37° E 14:38:59 37° E
Cosmos 2263 Rocket 3.4 15:22:53 38° ENE 15:22:53 38° ENE 15:26:26 10° NE
ARGOS 4.2 15:25:36 10° NE 15:30:45 44° ESE 15:31:39 41° SE
Cosmos 1980 Rocket 2.8 15:35:06 54° ESE 15:35:06 54° ESE 15:39:51 10° SSE
CZ-2C R/B 4.3 15:45:27 10° SSE 15:47:23 23° S 15:47:23 23° S
SL-16 R/B 4.3 15:47:43 10° S 15:49:28 19° S 15:49:28 19° S
Meteor 1-27 4.2 15:55:32 78° ESE 15:55:32 78° ESE 16:00:57 10° SSE
CZ-4B R/B 4.0 15:53:23 10° NNE 15:58:27 58° ESE 15:59:46 44° SSE
ISS -1.1 16:01:58 21° E 16:01:58 21° E 16:03:17 10° E
SL-08 RB Rocket 4.3 15:59:43 10° NNE 16:04:07 55° ESE 16:04:33 52° SE
H-2A R/B 4.5 16:05:11 10° N 16:05:11 10° N 16:05:11 10° N
Cosmos 1818 3.9 16:08:37 42° N 16:10:18 64° ENE 16:15:41 10° SE
Cosmos 1242 Rocket 4.3 16:10:43 29° E 16:10:43 29° E 16:13:32 10° NE
Cosmos 1048 Rocket 4.5 16:13:36 48° S 16:13:36 48° S 16:17:41 10° SSE
SeaSat 1 2.4 16:08:43 10° NNE 16:13:41 84° ESE 16:14:02 77° S
Cosmos 1461 4.4 16:15:08 28° SE 16:15:17 28° SE 16:18:43 10° E
Cosmos 44 3.4 16:16:13 61° SE 16:16:13 61° SE 16:20:26 10° NE
Meteor 1-31 Rocket 4.4 16:12:48 10° NNE 16:14:37 27° NNE 16:14:37 27° NNE
S3M 3.9 16:17:53 33° SSW 16:20:46 69° W 16:27:00 10° N
Cosmos 2227 4.3 16:19:54 41° SSW 16:22:01 81° ESE 16:27:50 10° NNE
Helios 1A 3.6 16:18:00 10° SSE 16:21:07 48° SSE 16:21:07 48° SSE
Cosmos 1302 Rocket 4.0 16:21:40 47° SSW 16:23:17 83° ESE 16:28:37 10° NNE
USA 234 3.2 16:17:56 10° SE 16:24:31 67° SSW 16:26:21 48° W
SL-16 R/B 3.4 16:20:23 10° N 16:25:42 42° ENE 16:31:04 10° SE
Cosmos 1697 Rocket 3.8 16:30:03 29° SSW 16:30:03 29° SSW 16:33:43 10° SSE
Cosmos 2322 Rocket 4.0 16:24:25 10° NNE 16:29:18 31° ENE 16:34:14 10° SE
Cosmos 2360 Rocket 4.4 16:32:04 10° NNE 16:36:38 26° ENE 16:41:15 10° SE
Cosmos 2266 Rocket 3.8 16:31:00 10° NNW 16:37:04 67° WSW 16:43:12 10° S
SMAP 2.9 16:36:57 10° NNE 16:41:41 82° WNW 16:44:18 27° SSW
Cosmos 1844 Rocket 3.3 16:38:48 19° SSW 16:42:50 55° ESE 16:48:20 10° NE
Blok-L 3.9 16:42:20 53° W 16:42:56 61° NW 16:51:15 10° NNE
SL-08 ROCKET BODY 4.3 16:37:15 10° N 16:43:11 88° E 16:49:18 10° S
Exosat Rocket 3.5 16:42:08 36° SSW 16:44:18 78° WNW 16:50:07 10° NNE
SJ-11-01 4.3 16:49:23 10° N 16:54:02 57° W 16:56:12 30° SW
DMSP B5D2-2 4.3 16:49:49 10° SSE 16:55:07 74° ENE 17:00:23 10° N
COSMO-SKYMED 1 4.3 16:51:26 10° SSE 16:55:30 35° E 16:59:32 10° NNE
Meteor 2-12 Rocket 4.4 16:50:32 10° N 16:56:38 87° E 17:02:50 10° S
SL-4 R/B 4.5 16:53:21 10° N 16:56:56 24° NE 17:00:40 10° E
Cosmos-2242 3.0 16:52:40 10° N 16:57:03 85° E 17:01:32 10° S
Cosmos 1812 Rocket 3.6 16:54:11 10° N 16:58:34 83° E 17:03:00 10° S
Cosmos 2369 4.2 16:58:25 34° W 16:59:43 39° SW 17:05:05 10° SSE
BREEZE-M DEB (TANK) 1.6 17:00:04 58° WNW 17:00:34 86° N 17:02:46 10° ESE
DNEPR-1 R/B 3.3 17:02:35 41° WSW 17:03:53 68° NW 17:08:05 10° NNE
ADEOS 3.7 16:58:55 10° NNE 17:04:10 77° ESE 17:09:30 10° SSW
Cosmos 2263 Rocket 3.1 17:04:37 26° WNW 17:04:37 26° WNW 17:09:04 10° NNW
Cosmos 2278 3.7 17:03:33 10° NW 17:09:11 61° WSW 17:14:55 10° SSE
Cosmos 1812 4.0 17:06:47 10° NNE 17:10:21 41° E 17:13:59 10° SSE
ARGOS 3.9 17:06:17 10° NNW 17:11:08 32° W 17:13:07 25° WSW
Landsat 4 4.5 17:10:02 10° NNE 17:13:36 50° ESE 17:17:14 10° S
Cosmos 1544 2.7 17:13:48 19° SSW 17:16:07 77° W 17:19:32 10° N
Cosmos 1992 Rocket 3.9 17:13:05 15° SSW 17:17:31 73° WNW 17:22:43 10° NNE
Cosmos 1980 Rocket 3.1 17:16:55 25° WSW 17:18:36 29° SW 17:23:35 10° SSE
CZ-4 R/B 3.9 17:15:50 10° ENE 17:18:51 20° ESE 17:21:56 10° SSE
Cosmos 1666 2.5 17:16:52 11° SSW 17:20:25 80° W 17:24:05 10° N
Cosmos 2278 Rocket 4.3 17:17:49 10° S 17:22:02 20° SE 17:26:12 10° E
SL-08 R/B 3.3 17:20:25 10° SSE 17:25:08 87° ENE 17:29:47 10° NNW
CZ-2C R/B 4.4 17:27:18 10° SSW 17:28:52 14° SW 17:28:52 14° SW
CENTAUR R/B 3.7 17:26:56 10° NNW 17:34:57 55° ENE 17:41:41 10° SE
ISS -3.4 17:34:51 24° W 17:36:40 54° NNW 17:40:00 10° NE
BREEZE-M DEB (TANK) 1.6 17:35:26 22° WNW 17:36:46 80° NNE 17:40:42 10° ESE
YAOGAN 1 3.3 17:34:26 10° NNE 17:38:41 55° ESE 17:43:00 10° S
Nadezhda 1 Rocket 4.1 17:33:24 10° S 17:39:45 84° E 17:46:07 10° N
Cosmos 614 Rocket 3.9 17:34:50 10° NNW 17:39:58 72° WSW 17:45:09 10° SSE
CZ-4 R/B 4.4 17:36:39 10° N 17:40:49 69° WNW 17:45:01 10° SSW
Meteor 2-2 Rocket 4.3 17:37:04 10° NNW 17:42:56 73° WSW 17:49:01 10° S
SKYMED 2 3.5 17:39:12 10° SSE 17:43:39 81° WSW 17:48:03 10° NNW
Cosmos 1242 Rocket 3.8 17:43:58 19° W 17:44:21 19° W 17:46:49 10° NW
Cosmos 2237 4.2 17:40:18 10° NW 17:46:00 62° WSW 17:51:45 10° SSE
Cosmos 1602 4.4 17:44:57 10° SSW 17:48:21 33° W 17:51:44 10° NNW
Okean 3 Rocket 3.8 17:45:12 10° S 17:49:43 78° E 17:54:12 10° NNE
Cosmos 1782 2.8 17:47:25 10° N 17:51:23 90° WNW 17:55:26 10° S
SeaSat 1 4.0 17:48:37 10° NW 17:51:44 17° WNW 17:53:47 13° WSW
IKONOS-2 4.4 17:47:56 10° S 17:52:13 75° WSW 17:56:28 10° NNW
Meteor PRIRODA 4.5 17:50:05 10° NNW 17:53:19 30° W 17:56:35 10° SSW
Cosmos 1766 Rocket 3.6 17:49:25 10° SSW 17:53:56 66° W 17:58:21 10° N
Cosmos 1461 3.3 17:51:10 15° SW 17:54:05 42° WNW 17:57:50 10° NNE
Cosmos 1818 4.3 17:49:23 10° W 17:54:14 32° SW 17:59:08 10° SSE
CZ-4C R/B 4.4 17:52:20 10° SSE 17:56:33 55° E 18:00:47 10° N
CZ-4B DEB 4.3 17:52:46 10° NNE 17:58:23 80° WNW 18:04:03 10° SSW
IGS 5A 4.0 18:01:07 10° NNE 18:05:14 62° ESE 18:09:24 10° S
USA 234 3.8 18:00:47 10° ESE 18:06:59 45° S 18:13:11 10° WSW
Resurs 01 Rocket 4.1 18:06:33 10° ENE 18:09:36 18° ESE 18:12:39 10° SSE
SL-16 R/B 2.7 18:04:32 10° WNW 18:09:52 39° SW 18:15:15 10° SSE
CZ-4B R/B 3.8 18:08:05 10° NNW 18:11:56 33° W 18:16:01 10° SSW
Cosmos 2322 Rocket 2.4 18:07:39 10° NW 18:13:08 50° SW 18:18:39 10° SSE
Cosmos 1437 Rocket 3.8 18:09:29 10° S 18:13:12 45° ESE 18:16:49 10° NNE
Okean O Rocket 2.5 18:09:24 10° NNE 18:13:41 52° ESE 18:18:01 10° S
Cosmos 1844 4.3 18:08:40 10° SW 18:14:06 40° WNW 18:19:27 10° N
DELTA 2 DEB (DPAF) 4.5 18:14:30 10° S 18:18:42 43° WSW 18:22:51 10° NW
Cosmos 2360 Rocket 2.3 18:14:37 10° NW 18:20:13 60° WSW 18:25:55 10° SSE
Cosmos 407 Rocket 4.1 18:15:52 10° N 18:20:57 63° ENE 18:26:08 10° SSE
USA 186 3.3 18:20:13 10° NE 18:23:16 38° ESE 18:26:24 10° S
Cosmos 2221 2.8 18:19:16 10° NNW 18:23:30 47° WSW 18:27:45 10° S
PAYLOAD B 4.4 18:20:07 10° N 18:25:40 65° WNW 18:31:20 10° SSW
Cosmos 1844 Rocket 3.7 18:21:43 10° SW 18:26:24 28° WNW 18:31:02 10° NNW
